Дата Пункты Температура Давл., мм. Влажн., % Ветер Погодные явления
Воздуха Воды Направл. Скорость
23.12.18 05:00 Одесса 4.0 4.0 757 77 Пн-З 3 17 ГОДИН
23.12.18 02:00 Одесса 7.0 4.0 756 67 Пн-З 6 14 ГОДИН
23.12.18 11:00 Одесса 6.0 3.0 755 73 Пн-З 3 11 ГОДИН
23.12.18 08:00 Одесса 5.0 3.0 754 84 Пн-З 3 08 ГОДИН
23.12.18 05:00 Одесса 3.0 3.0 753 89 З 2 05 ГОДИН
23.12.18 02:00 Одесса 3.0 3.0 753 91 Пд-З 2 02 ГОДИНИ
22.12.18 11:00 Одесса 2.0 3.0 755 89 Пд-З 1 23 ГОДИНИ
22.12.18 08:00 Одесса 1.0 3.0 756 88 Пн 0 20 ГОДИН
22.12.18 05:00 Одесса 1.0 3.0 756 88 З 1 17 ГОДИН
22.12.18 02:00 Одесса 2.0 3.0 757 86 Пд-З 2 14 ГОДИН
22.12.18 11:00 Одесса 3.0 3.0 758 97 Пд-З 3 11 ГОДИН
22.12.18 05:00 Одесса -3.0 3.0 762 97 Пн 0 05 ГОДИН
22.12.18 02:00 Одесса -4.0 3.0 763 97 Пд-З 1 02 ГОДИНИ
21.12.18 11:00 Одесса -3.0 3.0 764 96 З 1 23 ГОДИНИ
21.12.18 08:00 Одесса -3.0 3.0 765 95 Пн-З 1 20 ГОДИН
21.12.18 05:00 Одесса -2.0 3.0 765 92 Пн-З 1 17 ГОДИН
21.12.18 11:00 Одесса -1.0 3.0 767 96 Пд-З 2 11 ГОДИН
21.12.18 08:00 Одесса 2.0 3.0 767 97 З 3 08 ГОДИН
21.12.18 05:00 Одесса 2.0 3.0 767 94 Пд-С 3 05 ГОДИН
20.12.18 08:00 Одесса -1.0 3.0 768 91 С 2 20 ГОДИН
Количество строк
1 2 3 4 5 6 7 8 9 10
Page 10 of 448